Time,TemperatureF,DewpointF,PressureIn,WindDirection,WindDirectionDegrees,WindSpeedMPH,WindSpeedGustMPH,Humidity,HourlyPrecipIn,Conditions,Clouds,dailyrainin,SoftwareType,DateUTC
2013-09-07 00:04:00,68.4,48.0,29.81,NNE,26,9.0,12.0,48,0.00,,,0.00,weatherlink.com 1.10,2013-09-07 06:04:00,
2013-09-07 00:19:00,68.5,48.0,29.81,NNE,32,9.0,11.0,48,0.00,,,0.00,weatherlink.com 1.10,2013-09-07 06:19:00,
2013-09-07 00:34:00,69.0,48.0,29.81,NNW,335,3.0,13.0,47,0.00,,,0.00,weatherlink.com 1.10,2013-09-07 06:34:00,
2013-09-07 00:49:00,66.6,48.0,29.81,NNW,343,6.0,10.0,52,0.00,,,0.00,weatherlink.com 1.10,2013-09-07 06:49:00,
2013-09-07 01:04:00,67.8,50.0,29.81,North,350,10.0,15.0,53,0.00,,,0.00,weatherlink.com 1.10,2013-09-07 07:04:00,
2013-09-07 01:19:00,67.5,51.0,29.81,NNW,343,9.0,13.0,55,0.00,,,0.00,weatherlink.com 1.10,2013-09-07 07:19:00,
2013-09-07 01:34:00,66.8,50.0,29.82,North,5,6.0,11.0,56,0.00,,,0.00,weatherlink.com 1.10,2013-09-07 07:34:00,
2013-09-07 01:49:00,66.0,50.0,29.82,North,5,6.0,9.0,56,0.00,,,0.00,weatherlink.com 1.10,2013-09-07 07:49:00,
2013-09-07 02:04:00,65.7,49.0,29.82,North,355,9.0,14.0,55,0.00,,,0.00,weatherlink.com 1.10,2013-09-07 08:04:00,
2013-09-07 02:19:00,66.2,49.0,29.82,NNW,346,6.0,15.0,54,0.00,,,0.00,weatherlink.com 1.10,2013-09-07 08:19:00,
2013-09-07 02:34:00,65.6,49.0,29.82,NNE,19,7.0,11.0,55,0.00,,,0.00,weatherlink.com 1.10,2013-09-07 08:34:00,
2013-09-07 02:49:00,65.4,49.0,29.82,North,10,9.0,14.0,55,0.00,,,0.00,weatherlink.com 1.10,2013-09-07 08:49:00,
2013-09-07 03:04:00,64.7,48.0,29.82,North,10,8.0,11.0,55,0.00,,,0.00,weatherlink.com 1.10,2013-09-07 09:04:00,
2013-09-07 03:19:00,63.8,49.0,29.83,North,350,10.0,13.0,58,0.00,,,0.00,weatherlink.com 1.10,2013-09-07 09:19:00,
2013-09-07 03:34:00,63.2,48.0,29.82,NNE,23,8.0,11.0,59,0.00,,,0.00,weatherlink.com 1.10,2013-09-07 09:34:00,
2013-09-07 03:49:00,63.4,49.0,29.83,North,5,9.0,16.0,59,0.00,,,0.00,weatherlink.com 1.10,2013-09-07 09:49:00,
2013-09-07 04:04:00,63.7,50.0,29.83,North,351,10.0,22.0,62,0.00,,,0.00,weatherlink.com 1.10,2013-09-07 10:04:00,
2013-09-07 04:19:00,62.9,50.0,29.83,NNE,15,9.0,13.0,63,0.00,,,0.00,weatherlink.com 1.10,2013-09-07 10:19:00,
2013-09-07 04:34:00,61.8,49.0,29.83,NNW,328,4.0,10.0,63,0.00,,,0.00,weatherlink.com 1.10,2013-09-07 10:34:00,
2013-09-07 04:49:00,61.3,48.0,29.83,NW,319,6.0,9.0,63,0.00,,,0.00,weatherlink.com 1.10,2013-09-07 10:49:00,
2013-09-07 05:04:00,60.9,49.0,29.84,North,355,6.0,11.0,66,0.00,,,0.00,weatherlink.com 1.10,2013-09-07 11:04:00,
2013-09-07 05:19:00,61.4,50.0,29.84,NW,325,8.0,13.0,67,0.00,,,0.00,weatherlink.com 1.10,2013-09-07 11:19:00,
2013-09-07 05:34:00,61.4,50.0,29.85,North,355,8.0,15.0,67,0.00,,,0.00,weatherlink.com 1.10,2013-09-07 11:34:00,
2013-09-07 05:50:00,60.8,49.0,29.84,North,355,7.0,11.0,66,0.00,,,0.00,weatherlink.com 1.10,2013-09-07 11:50:00,
2013-09-07 06:05:00,59.8,49.0,29.84,NNE,12,7.0,8.0,67,0.00,,,0.00,weatherlink.com 1.10,2013-09-07 12:05:00,
2013-09-07 06:20:00,58.9,48.0,29.84,NNE,14,4.0,7.0,68,0.00,,,0.00,weatherlink.com 1.10,2013-09-07 12:20:00,
2013-09-07 06:35:00,58.0,48.0,29.84,NNW,348,4.0,5.0,70,0.00,,,0.00,weatherlink.com 1.10,2013-09-07 12:35:00,
2013-09-07 06:50:00,57.0,49.0,29.84,NNW,348,4.0,5.0,74,0.00,,,0.00,weatherlink.com 1.10,2013-09-07 12:50:00,
2013-09-07 07:05:00,56.4,48.0,29.84,NNW,342,0.0,4.0,74,0.00,,,0.00,weatherlink.com 1.10,2013-09-07 13:05:00,
2013-09-07 07:20:00,56.7,49.0,29.85,North,355,4.0,8.0,74,0.00,,,0.00,weatherlink.com 1.10,2013-09-07 13:20:00,
2013-09-07 07:35:00,57.8,49.0,29.85,NNE,21,9.0,10.0,73,0.00,,,0.00,weatherlink.com 1.10,2013-09-07 13:35:00,
2013-09-07 07:50:00,57.9,50.0,29.85,NNE,27,11.0,11.0,74,0.00,,,0.00,weatherlink.com 1.10,2013-09-07 13:50:00,
2013-09-07 08:05:00,58.3,50.0,29.85,North,5,7.0,9.0,74,0.00,,,0.00,weatherlink.com 1.10,2013-09-07 14:05:00,
2013-09-07 08:20:00,58.5,50.0,29.85,North,355,6.0,11.0,74,0.00,,,0.00,weatherlink.com 1.10,2013-09-07 14:20:00,
2013-09-07 08:35:00,57.8,50.0,29.86,NNW,332,3.0,7.0,76,0.00,,,0.00,weatherlink.com 1.10,2013-09-07 14:35:00,
2013-09-07 08:50:00,58.2,51.0,29.86,WNW,300,2.0,4.0,76,0.00,,,0.00,weatherlink.com 1.10,2013-09-07 14:50:00,
2013-09-07 09:05:00,59.4,51.0,29.86,NW,324,3.0,6.0,73,0.00,,,0.00,weatherlink.com 1.10,2013-09-07 15:05:00,
2013-09-07 09:20:00,60.4,51.0,29.86,North,350,2.0,5.0,71,0.00,,,0.00,weatherlink.com 1.10,2013-09-07 15:20:00,
2013-09-07 09:35:00,61.8,51.0,29.85,West,273,4.0,4.0,68,0.00,,,0.00,weatherlink.com 1.10,2013-09-07 15:35:00,
2013-09-07 09:50:00,63.2,52.0,29.84,West,263,0.0,3.0,66,0.00,,,0.00,weatherlink.com 1.10,2013-09-07 15:50:00,
2013-09-07 10:05:00,63.9,52.0,29.84,SSE,161,0.0,5.0,65,0.00,,,0.00,weatherlink.com 1.10,2013-09-07 16:05:00,
2013-09-07 10:20:00,64.8,51.0,29.84,ESE,123,0.0,4.0,62,0.00,,,0.00,weatherlink.com 1.10,2013-09-07 16:20:00,
2013-09-07 10:36:00,65.8,51.0,29.84,West,263,0.0,3.0,60,0.00,,,0.00,weatherlink.com 1.10,2013-09-07 16:36:00,
2013-09-07 10:51:00,66.8,51.0,29.83,South,188,1.0,4.0,57,0.00,,,0.00,weatherlink.com 1.10,2013-09-07 16:51:00,
2013-09-07 11:06:00,67.2,50.0,29.83,ENE,74,4.0,6.0,55,0.00,,,0.00,weatherlink.com 1.10,2013-09-07 17:06:00,
2013-09-07 11:21:00,67.6,51.0,29.82,NE,40,2.0,7.0,55,0.00,,,0.00,weatherlink.com 1.10,2013-09-07 17:21:00,
2013-09-07 11:36:00,68.5,51.0,29.82,NE,34,3.0,6.0,54,0.00,,,0.00,weatherlink.com 1.10,2013-09-07 17:36:00,
2013-09-07 11:51:00,69.3,51.0,29.81,NE,53,2.0,6.0,53,0.00,,,0.00,weatherlink.com 1.10,2013-09-07 17:51:00,
2013-09-07 12:06:00,70.2,51.0,29.80,North,11,0.0,5.0,50,0.00,,,0.00,weatherlink.com 1.10,2013-09-07 18:06:00,
2013-09-07 12:21:00,72.0,51.0,29.80,NW,309,1.0,3.0,48,0.00,,,0.00,weatherlink.com 1.10,2013-09-07 18:21:00,
2013-09-07 12:36:00,72.7,52.0,29.79,West,267,2.0,6.0,48,0.00,,,0.00,weatherlink.com 1.10,2013-09-07 18:36:00,
2013-09-07 12:51:00,73.3,52.0,29.79,North,5,2.0,8.0,47,0.00,,,0.00,weatherlink.com 1.10,2013-09-07 18:51:00,
2013-09-07 13:06:00,73.8,52.0,29.77,NW,313,5.0,9.0,46,0.00,,,0.00,weatherlink.com 1.10,2013-09-07 19:06:00,
2013-09-07 13:21:00,74.9,51.0,29.77,North,360,5.0,7.0,44,0.00,,,0.00,weatherlink.com 1.10,2013-09-07 19:21:00,
2013-09-07 13:36:00,75.5,51.0,29.76,NNE,32,4.0,7.0,43,0.00,,,0.00,weatherlink.com 1.10,2013-09-07 19:36:00,
2013-09-07 13:51:00,76.7,51.0,29.75,NNW,336,5.0,8.0,41,0.00,,,0.00,weatherlink.com 1.10,2013-09-07 19:51:00,
2013-09-07 14:06:00,78.2,50.0,29.75,East,92,0.0,5.0,37,0.00,,,0.00,weatherlink.com 1.10,2013-09-07 20:06:00,
2013-09-07 14:21:00,78.6,50.0,29.74,NNE,13,1.0,9.0,37,0.00,,,0.00,weatherlink.com 1.10,2013-09-07 20:21:00,
2013-09-07 14:36:00,79.2,51.0,29.73,North,351,5.0,11.0,38,0.00,,,0.00,weatherlink.com 1.10,2013-09-07 20:36:00,
2013-09-07 14:52:00,79.7,51.0,29.72,NW,323,5.0,12.0,37,0.00,,,0.00,weatherlink.com 1.10,2013-09-07 20:52:00,
2013-09-07 15:07:00,80.6,51.0,29.72,NNW,348,0.0,12.0,36,0.00,,,0.00,weatherlink.com 1.10,2013-09-07 21:07:00,
2013-09-07 15:22:00,80.9,51.0,29.71,NW,325,7.0,11.0,35,0.00,,,0.00,weatherlink.com 1.10,2013-09-07 21:22:00,
2013-09-07 15:37:00,81.6,51.0,29.71,NNE,15,6.0,10.0,34,0.00,,,0.00,weatherlink.com 1.10,2013-09-07 21:37:00,
2013-09-07 15:52:00,81.8,51.0,29.70,North,351,10.0,11.0,34,0.00,,,0.00,weatherlink.com 1.10,2013-09-07 21:52:00,
2013-09-07 16:07:00,81.8,51.0,29.70,NW,321,6.0,12.0,34,0.00,,,0.00,weatherlink.com 1.10,2013-09-07 22:07:00,
2013-09-07 16:22:00,83.0,49.0,29.69,WNW,300,4.0,13.0,31,0.00,,,0.00,weatherlink.com 1.10,2013-09-07 22:22:00,
2013-09-07 16:37:00,82.1,49.0,29.69,NW,319,4.0,9.0,32,0.00,,,0.00,weatherlink.com 1.10,2013-09-07 22:37:00,
2013-09-07 16:52:00,82.6,51.0,29.68,NW,314,9.0,13.0,33,0.00,,,0.00,weatherlink.com 1.10,2013-09-07 22:52:00,
2013-09-07 17:07:00,81.3,49.0,29.68,NNW,336,8.0,13.0,32,0.00,,,0.00,weatherlink.com 1.10,2013-09-07 23:07:00,
2013-09-07 17:22:00,82.3,50.0,29.67,NNW,337,5.0,13.0,32,0.00,,,0.00,weatherlink.com 1.10,2013-09-07 23:22:00,
2013-09-07 17:37:00,82.4,49.0,29.67,North,355,3.0,17.0,31,0.00,,,0.00,weatherlink.com 1.10,2013-09-07 23:37:00,
2013-09-07 17:52:00,82.2,47.0,29.67,NNW,340,12.0,17.0,29,0.00,,,0.00,weatherlink.com 1.10,2013-09-07 23:52:00,
2013-09-07 18:07:00,82.2,47.0,29.67,NNW,342,8.0,17.0,29,0.00,,,0.00,weatherlink.com 1.10,2013-09-08 00:07:00,
2013-09-07 18:22:00,82.2,46.0,29.67,North,5,13.0,19.0,28,0.00,,,0.00,weatherlink.com 1.10,2013-09-08 00:22:00,
2013-09-07 18:37:00,81.6,45.0,29.67,NNW,334,8.0,17.0,28,0.00,,,0.00,weatherlink.com 1.10,2013-09-08 00:37:00,
2013-09-07 18:52:00,81.3,45.0,29.67,NNW,329,6.0,14.0,28,0.00,,,0.00,weatherlink.com 1.10,2013-09-08 00:52:00,
2013-09-07 19:07:00,79.8,46.0,29.67,NNW,346,9.0,13.0,30,0.00,,,0.00,weatherlink.com 1.10,2013-09-08 01:07:00,
2013-09-07 19:22:00,79.8,45.0,29.66,North,351,13.0,16.0,29,0.00,,,0.00,weatherlink.com 1.10,2013-09-08 01:22:00,
2013-09-07 19:37:00,78.1,46.0,29.67,North,355,12.0,14.0,32,0.00,,,0.00,weatherlink.com 1.10,2013-09-08 01:37:00,
2013-09-07 19:52:00,77.5,45.0,29.67,NNW,327,8.0,14.0,32,0.00,,,0.00,weatherlink.com 1.10,2013-09-08 01:52:00,
2013-09-07 20:07:00,76.6,47.0,29.68,North,355,16.0,21.0,35,0.00,,,0.00,weatherlink.com 1.10,2013-09-08 02:07:00,
2013-09-07 20:22:00,75.7,48.0,29.69,NW,319,7.0,15.0,37,0.00,,,0.00,weatherlink.com 1.10,2013-09-08 02:22:00,
2013-09-07 20:37:00,73.5,48.0,29.70,North,355,9.0,9.0,40,0.00,,,0.00,weatherlink.com 1.10,2013-09-08 02:37:00,
2013-09-07 20:52:00,72.7,48.0,29.71,NNW,344,10.0,11.0,41,0.00,,,0.00,weatherlink.com 1.10,2013-09-08 02:52:00,
2013-09-07 21:07:00,73.3,48.0,29.72,NW,315,6.0,15.0,41,0.00,,,0.00,weatherlink.com 1.10,2013-09-08 03:07:00,
2013-09-07 21:22:00,72.8,48.0,29.72,North,351,8.0,14.0,42,0.00,,,0.00,weatherlink.com 1.10,2013-09-08 03:22:00,
2013-09-07 21:37:00,72.1,47.0,29.73,North,360,11.0,13.0,41,0.00,,,0.00,weatherlink.com 1.10,2013-09-08 03:37:00,
2013-09-07 21:52:00,71.9,47.0,29.73,NW,325,6.0,15.0,41,0.00,,,0.00,weatherlink.com 1.10,2013-09-08 03:52:00,
2013-09-07 22:07:00,71.5,47.0,29.74,North,355,8.0,11.0,42,0.00,,,0.00,weatherlink.com 1.10,2013-09-08 04:07:00,
2013-09-07 22:22:00,71.1,47.0,29.75,North,355,7.0,9.0,43,0.00,,,0.00,weatherlink.com 1.10,2013-09-08 04:22:00,
2013-09-07 22:37:00,70.8,47.0,29.75,North,355,6.0,11.0,43,0.00,,,0.00,weatherlink.com 1.10,2013-09-08 04:37:00,
2013-09-07 22:52:00,70.3,47.0,29.75,NNW,329,7.0,13.0,43,0.00,,,0.00,weatherlink.com 1.10,2013-09-08 04:52:00,
2013-09-07 23:07:00,70.3,46.0,29.75,NNW,345,8.0,11.0,42,0.00,,,0.00,weatherlink.com 1.10,2013-09-08 05:07:00,
2013-09-07 23:22:00,68.6,46.0,29.76,NW,320,4.0,10.0,44,0.00,,,0.00,weatherlink.com 1.10,2013-09-08 05:22:00,
2013-09-07 23:37:00,67.2,44.0,29.75,NNW,346,7.0,7.0,44,0.00,,,0.00,weatherlink.com 1.10,2013-09-08 05:37:00,
2013-09-07 23:52:00,66.5,45.0,29.76,North,355,7.0,8.0,47,0.00,,,0.00,weatherlink.com 1.10,2013-09-08 05:52:00,